{"data":{"norad_id":58527,"intl_designator":"2023-191V","name":"STARLINK-31001","alt_names":[],"object_type":"PAYLOAD","status":"ACTIVE","operator":null,"country":"US","launch_date":"2023-12-07","launch_site_code":"AFETR","launch_vehicle":null,"mission":null,"orbit_class":"UNKNOWN","rcs_meters":null,"size_class":null,"mass_kg":null,"dimensions":null,"purposes":["comms"],"wikipedia_slug":null,"has_3d_model":false,"image_url":null,"decayed_at":null,"tle_current":{"epoch":"2026-05-25T01:58:18.330240Z","epoch_age_seconds":78679,"freshness":"FRESH","line1":"1 58527U 23191V   26145.08215660  .00001311  00000+0  57167-4 0  9994","line2":"2 58527  43.0074  31.9922 0001450 249.3080 110.7616 15.27587969137157","mean_motion":15.27587969,"eccentricity":0.000145,"inclination_deg":43.0074,"raan_deg":31.9922,"arg_perigee_deg":249.308,"mean_anomaly_deg":110.7616,"bstar":5.7167e-5,"rev_number":13715,"period_min":94.266256950339,"perigee_km":482.03036556661,"apogee_km":484.0201026145,"semimajor_km":6861.1622340906,"source":"CELESTRAK","updated_at":"2026-05-25T13:38:18.659191Z"}}}